Back to catalog

STARLINK-36753

AliveCommunicationsSSO
NORAD 67694·PAYLOAD·🇺🇸 United States

Launched Feb 7, 2026 from Vandenberg Space Force Base

Loading…

Next Passes (next 24 hours)

TLE

FreshSource: CelesTrak SupGP

Epoch: Sep 14, 2026, 20:55 UTC

1 67694C 26025B   26257.87201389 -.00015723  00000+0 -48796-3 0  2570
2 67694  97.2856   7.7886 0001008 110.7883  89.6368 15.33454715    13

Track STARLINK-36753 in real time with AllMySat

Download on the App Store